Theta_e
344 347 349 349 349 348 349 349 349 347 344 343 343 343 342 343 343 344 343 343 344 344 343 344 345 344 346 348 348 346 346 344 342 342 342 343 343 342 343 346 347 346
342 345 348 349 349 348 348 349 349 349 347 347 347 346 343 342 343 344 343 344 343 343 343 344 344 344 345 348 347 347 348 347 343 342 342 343 343 343 344 345 345 345
340 343 346 348 348 348 348 349 349 350 349 349 350 348 344 342 343 344 343 343 343 343 343 343 344 345 345 346 346 347 349 348 345 343 343 343 343 344 345 345 345 346
339 341 343 346 348 347 348 348 348 348 349 349 349 349 346 343 343 344 343 343 343 343 343 343 344 345 345 345 345 346 347 347 345 344 343 343 343 344 345 346 346 347
338 339 340 343 346 347 347 347 346 346 347 347 347 348 348 346 343 343 343 343 342 343 343 343 343 344 345 345 344 344 344 345 345 344 343 344 344 344 344 344 345 347
337 338 338 341 345 347 347 346 344 344 344 346 346 347 347 346 345 345 345 344 343 344 345 346 345 345 344 343 343 343 343 343 343 343 342 343 344 344 343 344 344 345
336 337 338 340 344 346 347 346 344 343 343 344 345 345 345 345 345 345 346 347 347 347 348 349 349 347 346 344 343 343 342 342 342 342 342 342 343 343 343 344 344 344
336 336 337 339 342 345 346 346 344 343 343 343 343 342 342 343 343 343 343 345 347 349 350 351 351 351 350 348 346 345 344 343 341 341 341 341 342 342 342 343 343 343
335 336 337 337 340 342 343 344 342 342 343 342 342 341 341 340 340 340 340 341 344 346 348 350 351 351 351 350 350 348 346 344 343 341 340 340 340 340 341 342 342 342
333 335 336 337 337 339 339 341 340 340 341 340 340 341 341 340 339 339 340 341 342 343 345 347 350 350 350 351 350 349 347 344 343 341 340 339 338 338 339 339 339 339
334 334 336 337 336 337 337 338 339 339 339 337 337 338 339 340 341 340 341 342 343 344 344 345 347 348 348 349 349 348 346 344 343 341 340 338 337 337 336 337 337 337
339 334 334 336 336 336 336 337 337 336 337 335 334 335 337 338 339 340 341 342 343 344 344 344 344 345 345 345 346 346 345 344 343 341 340 339 338 337 336 336 335 335
345 338 334 334 335 335 335 336 336 336 335 334 333 334 335 335 336 337 339 340 342 344 345 345 345 345 344 343 343 344 344 344 343 341 340 338 338 338 337 337 335 335
348 345 341 338 337 337 335 335 335 335 334 333 333 333 334 334 334 334 337 340 343 344 345 346 346 346 345 343 342 342 343 343 343 343 342 340 339 338 338 337 335 334
350 350 348 344 342 342 341 339 337 336 335 334 333 333 333 334 334 334 336 339 342 344 345 345 346 345 344 343 342 341 342 343 343 343 343 343 342 341 340 340 339 337
352 352 351 348 345 344 345 345 344 343 340 338 337 337 337 336 335 335 335 337 339 341 343 344 344 344 344 344 344 343 342 342 342 343 343 343 343 343 343 342 342 342
353 351 350 351 349 347 346 347 348 348 347 346 345 346 346 345 342 339 336 335 336 337 340 342 343 343 343 344 345 345 344 342 341 341 343 344 344 344 344 344 343 343
352 351 352 353 353 350 348 347 347 348 350 353 353 352 352 352 351 348 345 343 341 340 341 343 344 343 344 344 344 345 346 345 343 342 342 343 344 344 345 345 345 344
350 351 352 353 353 352 350 349 348 347 348 352 354 354 353 354 354 354 352 351 350 348 347 347 347 347 346 345 344 344 345 346 346 344 343 343 343 343 344 344 344 344
350 350 350 350 351 352 351 351 351 349 348 349 352 352 353 353 354 355 354 353 353 353 352 352 351 351 350 349 346 345 344 345 345 345 345 344 344 343 344 344 344 345
349 349 349 349 349 349 350 350 351 351 351 351 352 352 351 352 354 354 353 353 353 353 352 352 351 351 351 350 348 346 345 345 345 344 345 345 345 345 344 344 344 345
346 347 347 349 349 349 350 350 351 351 351 351 351 352 351 352 353 353 353 353 353 353 353 352 352 351 351 350 348 346 345 344 345 345 345 345 345 345 345 345 344 345
342 344 345 346 347 348 348 349 350 350 350 351 351 351 351 352 352 352 352 352 352 352 352 352 351 351 350 349 348 346 345 345 345 346 348 348 348 347 347 346 345 345
337 340 341 342 343 344 345 345 346 346 347 347 348 348 349 350 351 352 352 352 352 352 352 352 352 351 351 350 349 347 347 346 346 346 347 347 348 349 349 348 347 347
333 335 335 336 337 338 339 341 341 342 343 343 342 342 344 347 349 349 350 350 351 351 351 351 352 352 351 351 351 350 350 349 348 348 348 348 349 350 351 351 351 351
331 329 328 328 326 327 331 333 335 337 339 339 337 338 340 343 345 346 347 347 349 350 351 351 352 353 353 353 352 352 352 351 351 351 350 351 351 351 351 351 351 352
Wind_Speed
23 23 21 18 16 14 13 12 11 11 11 10 10 9 9 8 8 9 9 8 9 8 8 7 7 7 7 7 7 7 6 5 5 4 4 4 5 5 5 5 5 5
22 23 22 20 17 15 13 12 11 11 11 10 9 8 8 9 9 9 9 9 10 9 8 7 7 7 8 8 8 8 6 5 4 4 4 4 4 5 5 6 6 6
22 23 23 21 18 16 13 12 12 12 12 11 10 8 9 9 9 10 10 11 10 9 8 8 8 8 8 8 8 8 7 5 5 5 4 4 4 4 5 6 6 7
22 23 22 21 19 16 14 14 14 14 13 12 11 9 9 9 10 11 12 11 11 10 9 9 9 8 8 8 8 8 7 6 6 6 5 4 4 4 5 6 6 7
22 22 22 21 19 17 16 16 15 15 14 13 11 10 10 9 10 11 12 12 11 10 9 9 8 8 8 8 8 8 7 6 7 7 6 5 5 5 5 6 6 7
22 22 22 21 20 18 18 17 16 15 14 13 12 11 11 10 10 11 12 12 11 11 10 9 8 8 8 8 8 8 7 7 7 8 7 6 6 6 6 7 7 7
23 23 23 23 21 20 19 18 16 15 14 14 13 12 12 12 11 11 11 12 12 11 11 10 9 8 8 8 8 8 8 8 8 9 9 8 7 7 7 8 8 8
23 24 24 24 23 22 21 19 17 16 15 15 14 14 13 13 13 12 12 13 13 13 12 11 10 9 9 9 9 9 9 9 9 10 10 9 9 8 8 9 9 9
23 24 25 25 24 23 22 20 18 16 15 15 15 14 14 14 14 14 14 14 14 14 13 11 10 10 9 10 10 9 9 10 10 11 11 11 11 10 9 10 10 10
23 24 25 26 25 24 23 21 20 18 16 16 15 14 15 15 14 14 14 14 15 14 13 12 11 10 10 10 10 10 10 10 10 12 12 12 12 11 11 11 11 12
24 25 26 26 26 24 23 22 21 19 19 18 17 16 16 16 15 15 15 15 15 15 14 13 11 11 11 10 9 9 9 10 10 11 12 13 13 13 12 12 12 13
23 25 26 26 26 25 24 23 22 21 20 20 19 18 18 17 17 16 16 15 15 14 14 13 12 11 11 10 9 9 9 10 10 11 12 13 13 14 14 13 13 13
23 24 25 26 26 25 25 24 23 22 22 21 21 20 19 19 18 18 17 15 14 14 13 13 12 12 11 10 9 9 9 9 10 10 11 11 12 13 13 14 14 13
23 23 24 24 24 24 25 25 24 24 23 22 22 22 21 20 20 19 18 16 15 14 14 13 13 14 13 12 11 10 9 9 9 10 11 11 11 12 12 12 13 13
26 24 24 23 23 23 23 24 24 25 24 24 24 23 22 22 21 20 20 18 17 16 15 15 15 15 15 14 13 12 11 10 10 10 11 11 11 11 11 11 11 11
28 25 23 23 23 23 23 23 23 23 24 24 24 23 22 22 22 22 22 20 19 18 17 16 16 16 15 15 15 14 13 12 12 11 11 12 13 13 12 12 12 12
27 25 23 23 23 24 24 24 23 23 23 23 23 22 21 21 21 21 21 20 20 19 18 17 16 15 15 15 15 15 15 15 15 14 14 15 16 16 16 15 15 15
25 25 26 25 24 24 24 24 24 24 24 23 23 22 21 20 20 20 19 19 19 19 18 18 16 16 15 16 16 17 17 17 17 17 17 18 18 18 18 18 17 17
19 21 23 23 23 24 24 24 24 25 26 25 25 25 24 23 22 20 19 19 19 19 19 19 18 17 17 17 17 18 18 18 18 18 18 19 19 19 19 19 18 18
14 15 17 18 19 20 20 20 21 23 25 26 26 27 27 26 24 23 22 21 21 21 21 21 21 21 20 20 19 19 20 20 20 19 19 19 19 19 19 19 19 18
14 14 16 16 15 16 15 14 15 18 21 24 26 28 29 28 26 25 24 23 23 22 23 23 23 23 23 23 22 21 22 22 22 21 21 20 19 19 19 19 19 20
11 11 12 13 14 14 15 15 15 17 18 20 20 22 24 26 25 24 24 24 23 23 23 23 23 23 23 23 23 23 22 22 22 21 21 21 21 21 21 21 22 22
4 4 6 8 10 11 12 14 17 18 18 19 19 18 17 18 20 21 20 19 19 20 20 21 21 21 22 21 21 22 22 22 22 21 20 20 20 21 21 22 22 22
6 3 2 3 5 7 7 9 12 15 15 16 17 18 16 14 13 13 12 12 13 14 15 16 16 17 18 19 19 20 21 22 22 22 22 21 21 21 21 21 21 21
8 5 2 1 0 2 4 6 8 9 10 10 11 14 16 14 12 11 10 10 10 10 11 12 12 12 13 15 16 18 19 20 21 22 23 22 22 22 22 21 22 23
5 4 3 4 4 4 3 4 5 6 7 8 9 11 13 13 13 13 13 13 12 13 13 12 10 11 13 14 15 16 17 18 19 20 21 21 22 22 22 22 23 24
Wind_Direction
217 217 219 221 221 218 218 219 221 222 217 212 216 217 213 211 212 216 223 228 229 226 225 228 228 230 235 238 236 232 228 220 216 225 224 222 228 231 231 232 241 256
218 217 218 220 219 217 218 222 225 224 218 218 225 223 215 213 213 216 222 227 228 225 224 226 228 231 234 238 236 232 229 221 217 224 216 211 221 231 235 235 242 254
219 218 218 220 219 216 217 224 228 225 221 222 227 226 218 214 217 221 223 225 225 223 223 227 230 232 235 237 236 232 230 226 224 227 220 213 221 232 238 239 243 251
220 220 221 222 221 217 217 223 227 226 223 223 225 225 222 219 221 225 226 227 227 223 222 226 232 237 238 239 241 238 232 226 227 232 230 223 229 236 237 243 249 254
222 222 223 224 222 220 220 222 223 225 226 226 227 226 224 223 224 226 229 231 230 227 222 224 230 235 240 242 245 245 243 237 234 239 242 237 239 245 247 252 258 260
222 223 223 224 224 223 224 224 224 226 226 227 229 229 228 228 229 231 233 234 234 228 221 224 233 237 241 247 249 251 251 250 247 247 249 247 245 247 251 256 260 262
221 222 223 225 226 226 227 227 228 229 229 229 231 232 231 232 236 239 238 237 236 231 227 234 243 246 249 254 258 261 261 259 256 256 257 255 252 250 251 256 263 268
222 221 223 225 227 228 227 228 230 230 230 231 231 232 234 237 239 242 240 238 236 234 234 240 251 260 265 268 271 273 272 270 267 265 265 265 263 261 259 261 266 272
223 223 223 225 227 228 229 229 230 230 231 233 234 235 238 241 242 242 241 239 237 237 237 242 254 264 272 277 281 282 280 277 273 270 268 267 266 266 263 264 267 271
224 224 224 225 227 228 230 231 231 230 231 232 235 237 240 243 244 242 241 241 242 243 243 245 250 255 261 269 278 282 281 277 274 272 269 266 265 265 264 266 268 272
227 225 225 226 228 229 230 231 232 232 232 233 235 234 236 240 241 240 239 240 243 247 249 251 252 254 258 264 272 279 282 282 279 277 274 271 268 267 267 269 271 274
233 229 227 227 229 231 232 232 233 233 234 236 237 235 234 235 237 239 238 238 241 244 249 253 255 257 259 262 267 273 278 282 281 281 280 277 274 272 272 272 275 277
240 234 230 230 231 232 234 235 236 236 237 238 239 239 237 235 235 237 238 238 239 241 246 250 252 253 255 256 258 263 271 275 279 282 283 283 280 277 274 273 274 276
245 241 236 235 235 235 237 238 238 239 240 240 240 240 239 237 237 237 236 235 235 237 240 244 246 247 248 250 250 252 257 262 270 278 283 286 286 285 282 279 277 276
242 240 236 235 234 236 238 240 242 242 242 241 240 239 239 239 238 238 237 236 235 237 237 239 243 245 246 248 248 246 245 248 257 267 275 281 285 288 290 288 287 286
238 238 236 233 230 230 233 236 239 242 243 241 238 237 239 239 239 239 239 240 240 240 240 241 242 245 248 251 252 250 247 245 246 252 260 269 276 280 283 286 289 292
241 243 243 238 232 230 231 233 235 237 239 241 241 239 239 240 241 241 241 243 245 246 246 246 246 247 250 254 256 256 254 251 248 248 253 263 270 274 276 279 282 284
244 246 246 243 238 236 236 236 236 234 233 237 240 240 239 239 241 242 243 245 249 251 253 254 254 254 255 257 259 260 260 259 255 253 255 261 269 274 277 278 278 279
243 246 248 245 239 238 240 242 241 239 238 241 242 240 239 240 240 240 243 246 250 254 257 259 260 261 262 263 264 264 266 267 265 262 261 262 267 273 278 279 278 277
226 232 238 238 233 233 237 243 248 249 250 252 251 246 243 241 240 241 243 246 249 252 255 258 260 262 264 265 266 266 267 269 270 270 267 266 268 272 276 277 275 272
196 202 212 217 221 224 227 234 245 250 251 252 253 252 250 244 241 242 244 246 249 251 253 256 259 262 263 264 266 268 269 269 270 270 269 268 268 271 274 273 269 266
173 177 192 203 211 220 224 224 226 232 236 237 240 246 250 247 243 242 244 246 248 250 252 254 256 258 260 262 264 266 267 268 270 271 271 270 269 270 272 271 269 267
138 159 190 205 212 219 225 226 226 228 229 230 233 235 240 244 244 242 243 247 249 251 252 253 254 255 257 259 259 260 261 264 266 269 271 270 270 271 271 271 270 269
79 114 191 214 214 215 223 232 235 234 231 232 237 237 233 234 237 238 240 245 250 253 255 256 257 259 260 259 257 256 258 260 262 265 267 269 270 270 271 272 272 272
80 91 108 93 145 213 226 237 241 240 241 244 248 248 245 244 244 242 243 246 249 252 255 256 256 257 257 255 254 254 256 257 260 261 263 265 266 267 268 269 270 270
59 52 57 60 42 19 333 293 280 270 266 264 257 254 254 252 248 243 240 243 246 244 243 242 241 241 243 244 245 247 248 250 252 254 256 257 259 261 263 264 264 266